{"data":{"norad_id":52614,"intl_designator":"2022-052S","name":"STARLINK-3982","alt_names":[],"object_type":"PAYLOAD","status":"ACTIVE","operator":null,"country":"US","launch_date":"2022-05-14","launch_site_code":"AFETR","launch_vehicle":null,"mission":null,"orbit_class":"UNKNOWN","rcs_meters":null,"size_class":null,"mass_kg":null,"dimensions":null,"purposes":["comms"],"wikipedia_slug":null,"has_3d_model":false,"image_url":null,"decayed_at":null,"tle_current":{"epoch":"2026-09-20T01:11:43.162368Z","epoch_age_seconds":102200,"freshness":"FRESH","line1":"1 52614U 22052S   26263.04980512  .00067917  00000+0  84648-3 0  9999","line2":"2 52614  53.2074  15.5948 0001382 226.7976 133.2923 15.59306075241760","mean_motion":15.59306075,"eccentricity":0.0001382,"inclination_deg":53.2074,"raan_deg":15.5948,"arg_perigee_deg":226.7976,"mean_anomaly_deg":133.2923,"bstar":0.00084648,"rev_number":24176,"period_min":92.348771231459,"perigee_km":388.7289051229,"apogee_km":390.5995253788,"semimajor_km":6767.8012152509,"source":"CELESTRAK","updated_at":"2026-09-20T09:00:40.070657Z"}}}